Location: Long Island Community Building
(39.9491°N, 99.5338°W)
Time: 23:30:18
(UTC+00:00)

CZ-4B R/B - Pass Details

Date: 06 December 2019
Orbit: 809 x 881 km, 99.1° (Epoch: 20 January)

Event Time Altitude Azimuth Distance (km) Brightness Sun altitude
Rises 13:07:39 0° 4° (N) 3,437 6.2 -7.3°
Reaches altitude 10° 13:10:12 10° 356° (N) 2,507 5.4 -6.9°
Maximum altitude 13:15:11 35° 293° (WNW) 1,377 3.8 -6.0°
Drops below altitude 10° 13:20:12 10° 229° (SW) 2,524 5.5 -5.1°
Sets 13:22:47 0° 221° (SW) 3,464 6.2 -4.7°
